Location: Wildlife_Club
(35.6000°N, 81.4330°W)
Time: 01:24:03
(UTC-04:00)

A-11 Canister half - Pass Details

Date: 29 June 2019
Orbit: 1514 x 1685 km, 47.2° (Epoch: 22 July)

Event Time Altitude Azimuth Distance (km) Brightness Sun altitude
Rises 06:35:18 0° 169° (S) 4,921 11.5 3.2°
Reaches altitude 10° 06:41:14 10° 143° (SE) 3,940 11.3 4.3°
Maximum altitude 06:44:53 12° 121° (ESE) 3,739 11.6 4.9°
Drops below altitude 10° 06:48:31 10° 100° (E) 3,931 12.2 5.6°
Sets 06:54:20 0° 74° (ENE) 4,898 14.0 6.7°
